STARLINK-31587, 59570

Orbit data source: Space-Track

STARLINK-31587, 59570 is a payload satellite owned by SpaceX/Seattle (US) in LEO that was launched on Tue, 23 Apr 2024 UTC via an FALCON 9 launch vehicle from the Air Force Eastern Test Range (AFETR). Payload-class satellites include a variety of spacecraft equipped with specific instruments for various scientific and technological missions. These include communications satellites like Starlink; space stations such as the ISS; scientific satellites like the Hubble; Earth observation satellites from companies like Planet Labs, Umbra, and HawkEye 360; GPS; miniature CubeSats for education and research; and military/defense satellites.

Loading next visibility...
Identifier
59570, 2024-076G
Orbit
LEO
Country
Flag of USUS
Related business
Manufacturer
SpaceX/Seattle
Mission
Operational Commercial Communications
Bus & Motor
STARLINK V2M, Unknown motor
Mass
730 kg wet, ~700 kg dry
Launch date (UTC)
2024-04-23 (2 years ago)
Launch vehicle
FALCON 9
Launch site
Air Force Eastern Test Range (AFETR)
Object type
Payload
Rocket body
Debris
Shape & HBR
Box + 2 Pan, 17.7 m
Radar Cross Section
33.884 m², Large (>1 m²)

Expand to show TLE details & history
Last TLE update: 8 hours ago

TLE from 8 hours ago
0 STARLINK-31587
1 59570U 24076G   26125.79089161  .00000262  00000-0  19040-4 0  9990
2 59570  43.0010  46.6892 0001291 262.5545  97.5160 15.27583016115253
Epoch: 2026-05-05T18:58Z
TLE epoch observation values (Epoch: 2026-05-05T18:58:53.035Z)
Latitude
-0°
Longitude
-101.69245°
Altitude
482.932 km
Speed
7.626 km/s
True Right ascension
03h 06m 45s
True Declination
0° 00' 00"
Sunlit
Object was in daylight at epoch
Visualization orbit readout
Latitude
Unknown
Longitude
Unknown
Altitude
Unknown
Speed
Unknown
Apparent Right ascension
Unknown
Apparent Declination
Unknown
Sunlit
N/A
Visualization observer readout
Local Sidereal Time
11:06:37
Azimuth
Unknown
Elevation
Unknown
Doppler factor
Unknown
Orbital elements
Apogee altitude
485.871 km
Perigee altitude
484.099 km
Semi-major axis
6,863.122 km
Eccentricity
0.00013
Inclination
43.001°
RAAN
46.6892°
Arg. of periapsis
262.5545°
True anomaly
97.53067°
Mean anomaly
97.516°
Eccentric anomaly
97.52333°
Mean motion
3.81734 °/min
Orbital period
94.31 mins
BSTAR
0.00001904
Loading maneuver chart data...
Computing Atmospheric mass density...
Loading historical data...
Loading historical data...
Loading historical data...
Loading historical data...
Loading historical data...
Loading historical data...
Loading historical data...

Documentation

Showing up to 5 results
|